Find Starlink 32391

NORAD ID: 61855 Int'l Des: 2024-202 Owner: SPXS Country: US Constellation: starlink operational
LEOCIRCULAR

当前视图

正在加载3D地球...

About Starlink 32391

Starlink 32391 (NORAD 61855) is a starlink constellation satellite (v2 mini) launched Nov 7, 2024 by SPXS of US. It operates in LEO, CIRCULAR orbit with a mass of 730.00 kg.

关于 Starlink 32391

正在加载描述...

即将过境

Passes for default location (London). Set your location on the main map for personalized predictions.

高度历史

Loading altitude history...

两行轨道根数

1 61855U 24202L 26170.98019062 .00001107 00000-0 49743-4 0 9996
2 61855 43.0044 20.1355 0001544 269.7554 90.3121 15.27579744 90972
Epoch: Jun 19, 2026 • Age: 27 hours

当前状态

高度 485.4 km
速度 7.62 km/s
星下点 -14.90°S, 56.52°E
发射日期 Nov 7, 2024
运行时间 1.6 years
类型 internet

技术详情

分类 Payload
质量 730.00 kg
干质量 700.00 kg
总质量 730.00 kg
长度 0.30 m
直径 4.10 m
跨度 29.00 m
形状 Box + pan
制造商 SPXS
平台类型 Starlink V2M
阶段状态 In Orbit
所有者/国家 SPXS/US

Most Searched